Regional Weather Roundup
Issued by NWS

Home | Current Version | Previous Version | Text Only | Print | Product List | Glossary Off
Versions: 1 2 3 4 5 6 7 8 9 10 11 12 13 14 15 16 17 18 19 20 21 22 23 24 25 26 27 28 29 30 31 32 33 34 35 36 37 38 39 40 41 42 43 44 45 46 47 48 49 50

000
ASUS43 KDMX 010808
RWRIA

WEATHER ROUNDUP FOR IOWA
NATIONAL WEATHER SERVICE DES MOINES IA
300 AM CDT SUN MAY 01 2016

NOTE: "FAIR" INDICATES FEW OR NO CLOUDS BELOW 12,000 FEET WITH NO
SIGNIFICANT WEATHER AND/OR OBSTRUCTIONS TO VISIBILITY.

* - THESE STATIONS ARE NOT NWS STATIONS...THUS NOT UNDER NWS
QUALITY CONTROL.  THEY ALSO DO NOT REPORT WEATHER SUCH
AS PRECIPITATION OR FOG.

IAZ001>003-012>014-020>022-031>034-043>046-010900-
   NORTHWEST IOWA

CITY           SKY/WX    TMP DP  RH WIND       PRES   REMARKS
CARROLL *      CLOUDY    43  43 100 NE12G18   29.96S FOG
CHEROKEE *     DRIZZLE   43  41  93 NE10      30.02R
DENISON *      CLOUDY    43  43 100 NE12G18   29.94S FOG
LE MARS *      CLOUDY    45  41  87 NE15      30.04S
ORANGE CITY *  CLOUDY    43  41  93 NE13G20   30.03S
SHELDON *      MIX PCPN  43  41  93 NE18G26   30.03S
SIOUX CITY     LGT RAIN  44  40  85 NE14      30.01S
SPENCER        CLOUDY    42  40  92 NE18      30.04S FOG
STORM LAKE *   CLOUDY    41  41 100 NE22      30.00S
$$

IAZ055>058-069>071-079>083-090>094-010900-
   SOUTHWEST IOWA

CITY           SKY/WX    TMP DP  RH WIND       PRES   REMARKS
ATLANTIC *     CLOUDY    45  43  93 NE9G16    29.93R
AUDUBON *        N/A     43  41  93 NE12G18   29.95R
CLARINDA *       N/A    N/A N/A N/A MISG        N/A
COUNCIL BLFS * CLOUDY    45  45 100 NE15G21   29.91S
CRESTON *      FOG       45  45 100 E13       29.92R VSB 1/2
HARLAN  *      CLOUDY    45  43  93 NE14G20   29.97R
LAMONI         FOG       46  46 100 NE10      29.89S VSB 1/2
RED OAK *      CLOUDY    48  46  93 NE15      29.90F
SHENANDOAH *   CLOUDY    50  50 100 NE7       29.90S
$$

IAZ047>049-059>061-072>074-084-010900-
   CENTRAL IOWA

CITY           SKY/WX    TMP DP  RH WIND       PRES   REMARKS
AMES           CLOUDY    44  42  93 NE12      29.96S
ANKENY *       CLOUDY    45  45 100 NE7       29.94F
BOONE *        CLOUDY    43  43 100 E14G20    29.95S
CHARITON *     CLOUDY    45  45 100 NE10      29.92R FOG
DES MOINES     CLOUDY    46  42  86 E13       29.93F
GRINNELL*      CLOUDY    43  43 100 NE9       29.95S FOG
KNOXVILLE *    CLOUDY    45  43  93 NE13G18   29.91S FOG
MARSHALLTOWN   CLOUDY    44  42  93 E16       29.95F
NEWTON *       CLOUDY    45  45 100 NE13      29.95S
PELLA *        CLOUDY    45  45 100 NE7       29.94F FOG
$$

IAZ004>006-015-016-023>025-035-036-010900-
   NORTH CENTRAL IOWA

CITY           SKY/WX    TMP DP  RH WIND       PRES   REMARKS
ALGONA *       MIX PCPN  43  41  93 NE18      30.02F
CLARION *      CLOUDY    43  43 100 NE20      29.99S
ESTHERVILLE    LGT RAIN  41  40  96 NE21G29   30.04F FOG
FORT DODGE *   CLOUDY    43  37  81 NE12      29.99S
MASON CITY     LGT RAIN  42  41  96 NE16      30.03S FOG
FOREST CITY *  DRIZZLE   41  41 100 NE9G17    30.03S
WEBSTER CITY * CLOUDY    43  43 100 NE14      29.96S
IOWA FALLS *   CLOUDY    45  43  93 NE10G16   29.98F
$$

IAZ007>011-017>019-026>030-037>042-050>054-066-010900-
   NORTHEAST IOWA

CITY           SKY/WX    TMP DP  RH WIND       PRES   REMARKS
CEDAR RAPIDS   CLOUDY    44  44 100 NE10      29.94S FOG
CHARLES CITY * CLOUDY    43  43 100 NE17G23   30.01S
CLINTON *      CLOUDY    45  44  97 NE13      29.93S
DECORAH *      CLOUDY    43  41  93 NE8       30.01S
DUBUQUE        CLOUDY    44  43  96 NE12      29.96S FOG
MONTICELLO *   CLOUDY    45  43  93 NE8       29.95F FOG
OELWEIN *      CLOUDY    43  43 100 NE15      29.98F FOG
WATERLOO       CLOUDY    43  42  97 NE14      29.97F FOG
$$

IAZ064-065-067-068-078-010900-
   EAST CENTRAL IOWA

CITY           SKY/WX    TMP DP  RH WIND       PRES   REMARKS
DAVENPORT      CLOUDY    45  44  97 NE12      29.93R FOG
IOWA CITY      CLOUDY    45  44  97 NE9       29.95S
MT. PLEASANT * CLOUDY    48  48 100 NE9       29.92R FOG
MUSCATINE *    CLOUDY    46  45  93 NE10      29.92F FOG
QUAD CITIES    CLOUDY    47  44  90 NE7       29.91S FOG
$$

IAZ062-063-075>077-085>089-095>099-010900-
   SOUTHEAST IOWA

CITY           SKY/WX    TMP DP  RH WIND       PRES   REMARKS
BURLINGTON     CLOUDY    47  47 100 NE7       29.89S FOG
FAIRFIELD *    CLOUDY    46  45  93 NE10      29.92R FOG
FORT MADISON * FOG       46  46 100 NE6       29.91R VSB 3/4
KEOKUK *       FOG       48  48 100 NE5       29.89R VSB 1/4
OSKALOOSA *    CLOUDY    45  43  93 NE10      29.93S FOG
OTTUMWA        CLOUDY    45  44  97 NE10      29.92S
WASHINGTON *   CLOUDY    45  45 100 NE12      29.93S FOG
$$

ABBREVIATIONS USED IN REMARKS
   TC - TEMPERATURES IN CELSIUS
  WCI - WIND CHILL INDEX
   HX - HEAT INDEX
  VSB - VISIBILITY
$$





USA.gov is the U.S. government's official web portal to all federal, state and local government web resources and services.